Find Starlink 4699

NORAD ID: 53716 Int'l Des: 2022-107 Owner: SPXS Country: US Constellation: starlink operational
LEOCIRCULAR

Live-Position

3D-Globus wird geladen...

Über Starlink 4699

Beschreibung wird geladen...

Nächste Überflüge

Passes for default location (London). Set your location on the main map for personalized predictions.

Höhenverlauf

Loading altitude history...

Zweizeiliger Elementsatz

1 53716U 22107S 26125.82509042 -.00001186 00000-0 -56432-4 0 9992
2 53716 53.2198 357.3070 0001554 89.9570 270.1601 15.08847204203034
Epoch: 5. Mai 2026 • Age: 12 hours

Aktueller Status

Höhe 540.7 km
Geschwindigkeit 7.60 km/s
Subsatellitenpunkt 29.85°N, 172.34°E
Startdatum 5. Sept. 2022
Alter 3.6 years
Typ internet

Technische Details

Klassifizierung Payload
Masse 305.00 kg
Trockenmasse 290.00 kg
Gesamtmasse 305.00 kg
Länge 0.20 m
Durchmesser 2.80 m
Spannweite 9.00 m
Form Box + pan
Hersteller SPXS
Bus-Typ Starlink
Phasenstatus In Orbit
Besitzer/Staat SPXS/US

Most Searched